User: anonymous   Login
Location: Mount Kobau Star Party
(49.1167°N, 119.7333°W)
Time: 00:17:24
(UTC-07:00)
Language:

TSX-5 - Orbit

View from above orbital plane
View from above orbital plane
View from above satellite
View from above satellite

Ground track
Ground track

The orbit data is extracted from the following two-line orbital elements,

1 26374U 00030A   15142.19793434  .00013197  00000-0  11630-2 0  9992
2 26374 068.9335 092.4112 0669729 051.4002 044.2340 13.99313790749943
Epoch (UTC): 22 May 2015 04:45:01
Eccentricity: 0.0669729
inclination: 68.9335°
perigee height: 409 km
apogee height: 1383 km
right ascension of ascending node: 92.4112°
argument of perigee: 51.4002°
revolutions per day: 13.99313790
mean anomaly at epoch: 44.2340°
orbit number at epoch: 74994

The dashed part of the orbit path shows where the satellite is in the earth's shadow,  

DLR